Home   Weather   Qaanaaq   Past weeks

Flag for Greenland Past Weather in Qaanaaq, Greenland — Yesterday and Last 2 Weeks

Now
55 °F

Sunny.


Feels Like: 48 °F
Forecast: 41 / 46 °F
Wind: 37 mph from Southeast

Location: Thule A. B.

Current Time: Jul 28, 2017 at 1:03:33 pm

Latest Report: Jul 28, 2017 at 11:58 am


Visibility: N/A

Pressure: 29.62 "Hg

Humidity: 47%

Dew Point: 35 °F

Location of QaanaaqLocation

Past Weather in Qaanaaq — Graph

°F

Qaanaaq Temperature Yesterday

Maximum temperature yesterday: 55 °F (at 3:58 pm)
Minimum temperature yesterday: 46 °F (at 12:58 am)
Average temperature yesterday: 51 °F

High & Low Weather Summary for the Past Weeks

 TemperatureHumidityPressure
High55 °F (Jul 26, 7:58 am)100% (Jul 14, 5:58 pm)29.92 "Hg (Jul 14, 5:58 pm)
Low34 °F (Jul 15, 3:58 am)28% (Jul 26, 11:31 am)29.07 "Hg (Jul 19, 1:58 pm)
Average45 °F66%29.55 "Hg
* Reported Jul 13 11:08 am — Jul 28 10:58 am, Qaanaaq. Weather by CustomWeather, © 2017

Note: Actual official high and low records may vary slightly from our data, if they occured in-between our weather recording intervals... More about our weather records

Advertising

Qaanaaq Weather History for the Previous 24 Hours

Scroll right to see more
 ConditionsComfort  
Time TempWeatherWind HumidityBarometerVisibility
10:58 am
Fri, Jul 28
55 °FSunny.26 mph47%29.63 "HgN/A
9:58 am54 °FSunny.30 mph51%29.64 "HgN/A
8:58 am54 °FPassing clouds.22 mph51%29.65 "HgN/A
7:58 am54 °FPartly sunny.32 mph47%29.63 "HgN/A
6:58 am54 °FOvercast.31 mph47%29.63 "HgN/A
5:58 am54 °FPartly sunny.29 mph47%29.64 "HgN/A
4:58 am52 °FOvercast.21 mph54%29.65 "HgN/A
3:58 am54 °FOvercast.25 mph51%29.65 "HgN/A
2:58 am54 °FSunny.23 mph51%29.66 "HgN/A
2:27 am55 °FSunny.15 mph47%29.67 "HgN/A
1:58 am55 °FSunny.13 mph47%29.68 "HgN/A
12:58 am55 °FSunny.25 mph47%29.68 "HgN/A
11:58 pm
Thu, Jul 27
54 °FSunny.17 mph54%29.70 "HgN/A
10:58 pm55 °FPartly sunny.14 mph51%29.71 "HgN/A
9:58 pm55 °FPassing clouds.18 mph47%29.72 "HgN/A
9:24 pm55 °FPartly sunny.22 mph47%29.72 "HgN/A
9:15 pm55 °FOvercast.20 mph47%29.71 "HgN/A
8:58 pm55 °FPartly sunny.26 mph47%29.71 "HgN/A
7:58 pm55 °FSunny.24 mph47%29.72 "HgN/A
6:58 pm55 °FSunny.20 mph47%29.72 "HgN/A
6:34 pm55 °FSunny.16 mph47%29.73 "HgN/A
5:58 pm55 °FSunny.23 mph44%29.73 "HgN/A
4:58 pm55 °FScattered clouds.21 mph44%29.73 "HgN/A
4:23 pm55 °FScattered clouds.18 mph41%29.74 "HgN/A
3:58 pm55 °FScattered clouds.30 mph41%29.73 "HgN/A
2:58 pm54 °FOvercast.17 mph47%29.74 "HgN/A
2:24 pm52 °FMore clouds than sun.17 mph47%29.74 "HgN/A
2:10 pm52 °FMostly cloudy.13 mph47%29.74 "HgN/A
1:58 pm52 °FOvercast.14 mph50%29.75 "HgN/A
1:13 pm52 °FPartly sunny.14 mph54%29.75 "HgN/A
1:01 pm50 °FScattered clouds.17 mph54%29.75 "HgN/A
Weather by CustomWeather, © 2017

See weather overviewHow to use our weather pages